When you browse on this site, cookies collect data to enhance your experience and personalize the content and advertising you see.
Visit our Privacy Policy to learn more. By continuing to use the site, you agree to this use of cookies and data.
  • In United Kingdom
  • List of Countries
  • For 7 days
  • Water Temperature
  • Weather Map
  • Weather Widgets
  • user-avatar
    Login

    Hourly Weather Preston

    Today, 18 February, Tuesday

    Time Temperature Precipitation Wind Pressure Humidity
    00:00 +2°C° 0 mm 9 mps 756 mmHg 77%
    01:00 +2°C° 0.1 mm 9 mps 756 mmHg 77%
    02:00 +2°C° 0.1 mm 9 mps 756 mmHg 78%
    03:00 +2°C° 0.1 mm 10 mps 756 mmHg 79%
    04:00 +2°C° 0.1 mm 9 mps 756 mmHg 79%
    05:00 +2°C° 0.1 mm 9 mps 756 mmHg 79%
    06:00 +2°C° 0 mm 8 mps 756 mmHg 83%
    07:00 +2°C° 0.1 mm 9 mps 756 mmHg 84%
    08:00 +2°C° 0.1 mm 9 mps 756 mmHg 86%
    09:00 +3°C° 0.1 mm 10 mps 756 mmHg 88%
    10:00 +3°C° 0.2 mm 10 mps 756 mmHg 83%
    11:00 +5°C° 0.2 mm 10 mps 755 mmHg 79%
    12:00 +6°C° 0 mm 9 mps 755 mmHg 77%
    13:00 +5°C° 0.4 mm 10 mps 754 mmHg 77%
    14:00 +5°C° 0.4 mm 10 mps 754 mmHg 78%
    15:00 +4°C° 0.4 mm 11 mps 754 mmHg 79%
    16:00 +4°C° 0.3 mm 11 mps 754 mmHg 77%
    17:00 +3°C° 0.3 mm 10 mps 754 mmHg 75%
    18:00 +2°C° 0.3 mm 10 mps 754 mmHg 73%
    19:00 +2°C° 0.1 mm 9 mps 755 mmHg 73%
    20:00 +2°C° 0.1 mm 9 mps 756 mmHg 73%
    21:00 +1°C° 0.1 mm 8 mps 756 mmHg 72%
    22:00 +1°C° 0.1 mm 8 mps 757 mmHg 73%
    23:00 +1°C° 0.1 mm 8 mps 757 mmHg 73%

    Tomorrow, 19 February, Wednesday

    Time Temperature Precipitation Wind Pressure Humidity
    00:00 +1°C° 0.1 mm 8 mps 757 mmHg 74%
    01:00 +1°C° 0 mm 8 mps 758 mmHg 74%
    02:00 +1°C° 0 mm 8 mps 758 mmHg 75%
    03:00 +1°C° 0 mm 8 mps 759 mmHg 75%
    04:00 +2°C° 0 mm 7 mps 759 mmHg 76%
    05:00 0°C° 0 mm 7 mps 759 mmHg 77%
    06:00 +1°C° 0 mm 6 mps 759 mmHg 78%
    07:00 +2°C° 0 mm 6 mps 759 mmHg 78%
    08:00 +2°C° 0 mm 6 mps 759 mmHg 77%
    09:00 +2°C° 0 mm 6 mps 759 mmHg 77%
    10:00 +2°C° 0.3 mm 6 mps 759 mmHg 83%
    11:00 +2°C° 0.3 mm 5 mps 758 mmHg 88%
    12:00 +2°C° 0.3 mm 5 mps 757 mmHg 93%
    13:00 +3°C° 1 mm 6 mps 756 mmHg 93%
    14:00 +3°C° 1 mm 6 mps 755 mmHg 93%
    15:00 +4°C° 1 mm 6 mps 754 mmHg 93%
    16:00 +5°C° 1.7 mm 7 mps 753 mmHg 93%
    17:00 +5°C° 1.7 mm 8 mps 752 mmHg 93%
    18:00 +6°C° 1.7 mm 9 mps 751 mmHg 93%
    19:00 +6°C° 0.6 mm 9 mps 751 mmHg 93%
    20:00 +6°C° 0.6 mm 8 mps 751 mmHg 92%
    21:00 +6°C° 0.6 mm 8 mps 751 mmHg 91%
    22:00 +6°C° 0.8 mm 8 mps 751 mmHg 91%
    23:00 +7°C° 0.8 mm 8 mps 750 mmHg 92%

    Day after tomorrow, 20 February, Thursday

    Time Temperature Precipitation Wind Pressure Humidity
    00:00 +8°C° 0.8 mm 7 mps 750 mmHg 92%
    01:00 +7°C° 0.5 mm 8 mps 749 mmHg 91%
    02:00 +7°C° 0.5 mm 8 mps 748 mmHg 89%
    03:00 +7°C° 0.5 mm 8 mps 747 mmHg 87%
    04:00 +7°C° 0.1 mm 8 mps 747 mmHg 86%
    05:00 +7°C° 0.1 mm 8 mps 746 mmHg 86%
    06:00 +7°C° 0.1 mm 8 mps 745 mmHg 85%
    07:00 +6°C° 1.4 mm 8 mps 745 mmHg 88%
    08:00 +5°C° 1.4 mm 8 mps 745 mmHg 91%
    09:00 +4°C° 1.4 mm 8 mps 745 mmHg 94%
    10:00 +2°C° 1.3 mm 8 mps 746 mmHg 91%
    11:00 +2°C° 1.3 mm 9 mps 747 mmHg 87%
    12:00 +1°C° 1.3 mm 9 mps 748 mmHg 84%
    13:00 +1°C° 0.2 mm 10 mps 749 mmHg 77%
    14:00 +1°C° 0.2 mm 10 mps 750 mmHg 71%
    15:00 +2°C° 0.2 mm 11 mps 751 mmHg 64%
    16:00 +1°C° 0.2 mm 11 mps 752 mmHg 65%
    17:00 +1°C° 0.2 mm 11 mps 753 mmHg 67%
    18:00 +1°C° 0.2 mm 11 mps 754 mmHg 68%
    19:00 +1°C° 0.2 mm 11 mps 755 mmHg 69%
    20:00 +1°C° 0.2 mm 11 mps 755 mmHg 70%
    21:00 +1°C° 0.2 mm 11 mps 756 mmHg 71%
    22:00 +1°C° 0.1 mm 11 mps 757 mmHg 73%
    23:00 +1°C° 0.1 mm 10 mps 758 mmHg 75%

    21 February, Friday

    Time Temperature Precipitation Wind Pressure Humidity
    00:00 +1°C° 0.1 mm 10 mps 759 mmHg 77%
    01:00 +1°C° 0.1 mm 10 mps 759 mmHg 77%
    02:00 +2°C° 0.1 mm 9 mps 759 mmHg 78%
    03:00 +2°C° 0.1 mm 9 mps 760 mmHg 78%
    04:00 +2°C° 0 mm 9 mps 760 mmHg 79%
    05:00 +2°C° 0 mm 9 mps 760 mmHg 79%
    06:00 +2°C° 0 mm 9 mps 760 mmHg 80%
    13:00 +7°C° 0.1 mm 12 mps 758 mmHg 75%
    14:00 +7°C° 0.1 mm 12 mps 757 mmHg 77%
    15:00 +7°C° 0.1 mm 11 mps 757 mmHg 78%
    16:00 +7°C° 0.1 mm 11 mps 756 mmHg 79%
    17:00 +7°C° 0.1 mm 11 mps 756 mmHg 80%
    18:00 +7°C° 0.1 mm 11 mps 756 mmHg 81%
    19:00 +7°C° 0.2 mm 11 mps 756 mmHg 83%
    20:00 +7°C° 0.2 mm 11 mps 755 mmHg 85%
    21:00 +7°C° 0.2 mm 11 mps 755 mmHg 87%
    22:00 +7°C° 0.1 mm 11 mps 755 mmHg 87%
    23:00 +8°C° 0.1 mm 10 mps 755 mmHg 87%

    22 February, Saturday

    Time Temperature Precipitation Wind Pressure Humidity
    00:00 +8°C° 0.1 mm 10 mps 755 mmHg 88%
    01:00 +8°C° 0.1 mm 10 mps 755 mmHg 89%
    02:00 +8°C° 0.1 mm 10 mps 755 mmHg 89%
    03:00 +8°C° 0.1 mm 10 mps 754 mmHg 90%
    04:00 +8°C° 0.2 mm 10 mps 754 mmHg 88%
    05:00 +8°C° 0.2 mm 11 mps 754 mmHg 86%
    06:00 +9°C° 0.2 mm 11 mps 754 mmHg 84%
    07:00 +8°C° 0.2 mm 11 mps 754 mmHg 82%
    08:00 +8°C° 0.2 mm 11 mps 754 mmHg 80%
    09:00 +7°C° 0.2 mm 11 mps 754 mmHg 77%
    10:00 +7°C° 0.1 mm 12 mps 755 mmHg 75%
    11:00 +7°C° 0.1 mm 13 mps 755 mmHg 73%
    12:00 +6°C° 0.1 mm 14 mps 756 mmHg 70%
    13:00 +7°C° 0.1 mm 13 mps 756 mmHg 71%
    14:00 +7°C° 0.1 mm 13 mps 756 mmHg 73%
    15:00 +5°C° 0.1 mm 12 mps 756 mmHg 74%
    16:00 +5°C° 0.2 mm 12 mps 757 mmHg 76%
    17:00 +4°C° 0.2 mm 11 mps 758 mmHg 78%
    18:00 +4°C° 0.2 mm 11 mps 758 mmHg 80%
    19:00 +5°C° 0.1 mm 10 mps 759 mmHg 81%
    20:00 +3°C° 0.1 mm 10 mps 759 mmHg 82%
    21:00 +3°C° 0.1 mm 9 mps 760 mmHg 83%
    22:00 +3°C° 0.1 mm 9 mps 760 mmHg 82%
    23:00 +3°C° 0.1 mm 9 mps 760 mmHg 82%

    23 February, Sunday

    Time Temperature Precipitation Wind Pressure Humidity
    00:00 +4°C° 0.1 mm 8 mps 761 mmHg 82%
    01:00 +4°C° 0.6 mm 8 mps 760 mmHg 85%
    02:00 +4°C° 0.6 mm 7 mps 760 mmHg 88%
    03:00 +3°C° 0.6 mm 7 mps 760 mmHg 91%
    04:00 +3°C° 1.1 mm 6 mps 759 mmHg 92%
    05:00 +3°C° 1.1 mm 5 mps 759 mmHg 94%
    06:00 +4°C° 1.1 mm 3 mps 758 mmHg 95%
    07:00 +4°C° 1.5 mm 3 mps 758 mmHg 95%
    08:00 +5°C° 1.5 mm 2 mps 757 mmHg 95%
    09:00 +5°C° 1.5 mm 2 mps 756 mmHg 95%
    10:00 +5°C° 0.8 mm 2 mps 756 mmHg 95%
    11:00 +5°C° 0.8 mm 2 mps 757 mmHg 94%
    12:00 +5°C° 0.8 mm 2 mps 757 mmHg 93%
    13:00 +4°C° 0.1 mm 4 mps 758 mmHg 93%
    14:00 +3°C° 0.1 mm 5 mps 758 mmHg 92%
    15:00 +3°C° 0.1 mm 6 mps 759 mmHg 91%
    16:00 +3°C° 0 mm 6 mps 760 mmHg 89%
    17:00 +3°C° 0 mm 6 mps 761 mmHg 87%
    18:00 +2°C° 0 mm 6 mps 763 mmHg 85%
    19:00 +2°C° 0 mm 5 mps 764 mmHg 85%
    20:00 +3°C° 0 mm 4 mps 765 mmHg 86%
    21:00 +2°C° 0 mm 3 mps 766 mmHg 86%
    22:00 +2°C° 0 mm 3 mps 766 mmHg 86%
    23:00 +3°C° 0 mm 2 mps 766 mmHg 86%
    Show more